Location: Newark
(36.0797°N, 3.9744°E)
Time: 04:29:13
(UTC+00:00)

Vanguard 2 Rocket - Pass Details

Date: 16 December 2019
Orbit: 554 x 3326 km, 32.9° (Epoch: 27 January)

Event Time Altitude Azimuth Distance (km) Brightness Sun altitude
Rises 14:02:08 0° 222° (SW) 7,214 13.0 21.7°
Reaches altitude 10° 14:07:15 10° 217° (SW) 6,269 13.5 21.1°
Maximum altitude 14:25:50 47° 152° (SSE) 3,638 10.4 18.8°
Drops below altitude 10° 14:39:42 10° 85° (E) 4,807 10.2 17.0°
Sets 14:42:59 0° 79° (E) 5,484 10.4 16.5°
